"Pseudo-MPEC" for C15UMT5

Created 2025 Oct 24 15:35:04 UT using Find_Orb

Click here for an explanation of pseudo-MPECs

 
 Astrometry: 
     C15UMT5* C2025 10 02.36725901 49 52.590+19 51 59.62   ~A29o 22.00GVNEOCPV00
     C15UMT5  C2025 10 02.37286201 49 52.007+19 50 43.04   ~A29o 22.11GVNEOCPV00
     C15UMT5  C2025 10 02.37850101 49 51.380+19 49 26.40   ~A29o 21.55GVNEOCPV00
     C15UMT5  C2025 10 02.38408901 49 50.758+19 48 09.04   ~A29o 21.51GVNEOCPV00
     C15UMT5  C2025 10 02.50282001 49 39.180+19 21 04.60   ~A7Mo 21.6 RVNEOCP291
     C15UMT5  C2025 10 02.50553001 49 38.940+19 20 27.30   ~A7Mo 21.5 RVNEOCP291
     C15UMT5  C2025 10 02.50830001 49 38.720+19 19 49.50   ~A7Mo 21.9 RVNEOCP291

Station data:
(291) LPL/Spacewatch II  (N31.961669 W111.599905)  US/Arizona.  Observers J.
   V. Scotti, R. S. McMillan. 1.8-m f/2.7 reflector + CCD.
(V00) Kitt Peak-Bok  (N31.963125 W111.600190)  US/Arizona. Measurers T.
   Beuden, V. F. Carvajal, D. Fay, J. B. Fazekas, D. C. Fuls, A. R. Gibbs, A.
   D. Grauer, H. Gröller, J. K. Hogan, R. A. Kowalski, S. M. Larson, G. J.
   Leonard, D. Rankin, R. L. Seaman, F. C. Shelly, K. W. Wierzchoś. 2.25-m
   reflector + 4x4K mosaic CCD.

Orbital elements:  C15UMT5
   Perihelion 2025 Jul 16.322911 +/- 90.1 TT =  7:44:59.5 (JD 2460872.822911)
Epoch 2025 Oct  2.0 TT = JDT 2460950.5   Earth MOID: 0.1070      AutoNEOCP
M  57.276839133 +/- 60              (J2000 ecliptic)
n   0.737371082 +/- 0.21            Peri.   92.829494 +/- 60
a   1.213422325 +/- 0.23            Node   193.415153 +/- 0.6
e   0.24807365 +/- 0.146            Incl.   26.184175 +/- 14
P   1.337/488.212d         H 25.29  G  0.15   U 11.7  SR
q 0.912404219 +/- 0.108    Q 1.514440431 +/- 0.541
From 7 observations 2025 Oct. 2 (3.4 hr); mean residual 0".40
Residuals in arcseconds: 
251002 V00  .58+  .10+    251002 V00  .93-  .60-    251002 291  .37+  .06+    
251002 V00  .47+  .04+    251002 291  .19-  .07+    
251002 V00  .22-  .42+    251002 291  .08-  .10-    

Ephemerides (geocentric):
Date (UTC) HH   RA             Dec           delta  r     elong  mag " sig PA
---- --------  ------------   ------------  ------ ------ -----  --- --------
2025 10 24 16  01 30 35.833   -26 54 35.58  .25622 1.2039 140.7 24.1  17d 172
2025 10 24 17  01 30 34.684   -26 56 28.25  .25657 1.2041 140.7 24.1  17d 172
2025 10 24 18  01 30 33.539   -26 58 20.49  .25692 1.2043 140.6 24.1  17d 172
2025 10 24 19  01 30 32.399   -27 00 12.32  .25727 1.2044 140.6 24.1  17d 172
2025 10 24 20  01 30 31.262   -27 02 03.74  .25761 1.2046 140.5 24.1  17d 172
2025 10 24 21  01 30 30.129   -27 03 54.73  .25796 1.2048 140.5 24.1  17d 172
2025 10 24 22  01 30 29.000   -27 05 45.31  .25831 1.2049 140.4 24.1  17d 172
2025 10 24 23  01 30 27.876   -27 07 35.48  .25866 1.2051 140.4 24.1  17d 172
2025 10 25 00  01 30 26.755   -27 09 25.24  .25900 1.2052 140.3 24.1  17d 172
2025 10 25 01  01 30 25.639   -27 11 14.58  .25935 1.2054 140.3 24.1  17d 172
2025 10 25 02  01 30 24.526   -27 13 03.52  .25970 1.2056 140.2 24.1  17d 172
2025 10 25 03  01 30 23.418   -27 14 52.05  .26005 1.2057 140.2 24.1  17d 172
2025 10 25 04  01 30 22.313   -27 16 40.18  .26040 1.2059 140.1 24.1  17d 172
2025 10 25 05  01 30 21.213   -27 18 27.89  .26075 1.2061 140.1 24.1  17d 172
2025 10 25 06  01 30 20.117   -27 20 15.21  .26109 1.2062 140.0 24.1  17d 172
2025 10 25 07  01 30 19.024   -27 22 02.12  .26144 1.2064 140.0 24.1  17d 172
2025 10 25 08  01 30 17.936   -27 23 48.63  .26179 1.2065 139.9 24.1  17d 172
2025 10 25 09  01 30 16.852   -27 25 34.75  .26214 1.2067 139.9 24.2  17d 172
2025 10 25 10  01 30 15.772   -27 27 20.46  .26249 1.2069 139.8 24.2  17d 172
2025 10 25 11  01 30 14.696   -27 29 05.78  .26284 1.2070 139.8 24.2  17d 172
2025 10 25 12  01 30 13.624   -27 30 50.70  .26319 1.2072 139.7 24.2  17d 172
2025 10 25 13  01 30 12.556   -27 32 35.22  .26354 1.2073 139.7 24.2  17d 172
2025 10 25 14  01 30 11.492   -27 34 19.36  .26389 1.2075 139.6 24.2  17d 172
2025 10 25 15  01 30 10.432   -27 36 03.10  .26424 1.2077 139.6 24.2  17d 172
2025 10 25 16  01 30 09.376   -27 37 46.45  .26459 1.2078 139.5 24.2  17d 172
2025 10 25 17  01 30 08.325   -27 39 29.41  .26495 1.2080 139.5 24.2  17d 172
2025 10 25 18  01 30 07.277   -27 41 11.98  .26530 1.2082 139.4 24.2  17d 172
2025 10 25 19  01 30 06.233   -27 42 54.17  .26565 1.2083 139.4 24.2  17d 172
2025 10 25 20  01 30 05.194   -27 44 35.97  .26600 1.2085 139.3 24.2  17d 172
2025 10 25 21  01 30 04.158   -27 46 17.38  .26635 1.2086 139.3 24.2  17d 172
2025 10 25 22  01 30 03.127   -27 47 58.42  .26670 1.2088 139.2 24.2  17d 172
2025 10 25 23  01 30 02.099   -27 49 39.07  .26705 1.2090 139.2 24.2  17d 172
2025 10 26 00  01 30 01.076   -27 51 19.34  .26741 1.2091 139.1 24.2  17d 172
2025 10 26 01  01 30 00.056   -27 52 59.23  .26776 1.2093 139.1 24.2  17d 172
2025 10 26 02  01 29 59.041   -27 54 38.74  .26811 1.2095 139.0 24.2  17d 172
2025 10 26 03  01 29 58.030   -27 56 17.88  .26846 1.2096 139.0 24.2  17d 172
2025 10 26 04  01 29 57.023   -27 57 56.64  .26882 1.2098 138.9 24.2  17d 172
2025 10 26 05  01 29 56.020   -27 59 35.02  .26917 1.2099 138.9 24.2  17d 172
2025 10 26 06  01 29 55.020   -28 01 13.03  .26952 1.2101 138.8 24.2  17d 172
2025 10 26 07  01 29 54.025   -28 02 50.67  .26987 1.2103 138.8 24.2  17d 172
2025 10 26 08  01 29 53.034   -28 04 27.94  .27023 1.2104 138.7 24.2  17d 172
2025 10 26 09  01 29 52.048   -28 06 04.84  .27058 1.2106 138.7 24.3  17d 172
2025 10 26 10  01 29 51.065   -28 07 41.37  .27093 1.2107 138.6 24.3  17d 172
2025 10 26 11  01 29 50.086   -28 09 17.54  .27129 1.2109 138.6 24.3  17d 172
2025 10 26 12  01 29 49.111   -28 10 53.33  .27164 1.2111 138.5 24.3  17d 172
2025 10 26 13  01 29 48.140   -28 12 28.77  .27200 1.2112 138.5 24.3  17d 172
2025 10 26 14  01 29 47.174   -28 14 03.84  .27235 1.2114 138.4 24.3  17d 171
2025 10 26 15  01 29 46.211   -28 15 38.54  .27270 1.2116 138.4 24.3  17d 171